Вернуться в каталог

ATLAS 5 CENTAUR DEB

LostHEO
NORAD 52040·DEBRIS·🇺🇸 United States

Запущен Oct 17, 2018 с Cape Canaveral Space Force Station

Loading…

Ближайшие Пролёты (ближайшие 24 часа)

TLE

УстаревшееSource: Space-Track

Эпоха: Aug 10, 2024, 18:00 UTC

1 52040U 18079GJ  24223.75006934 -.00000079  00000-0  00000+0 0  9999
2 52040  12.7576 312.5366 4608168 124.2291 288.2977  2.33446987 20855

Отслеживайте ATLAS 5 CENTAUR DEB в реальном времени с AllMySat

Download on the App Store